Weather History for Hot Springs, AR

Change the Weather History Date:

Friday, November 1, 2013

  Actual Average Record
Temperature  
Mean Temperature 60 °F -  
Max Temperature 75 °F 70 °F 86 °F (1984)
Min Temperature 46 °F 49 °F 24 °F (1993)
Degree Days  
Heating Degree Days 4    
Growing Degree Days 10 (Base 50)    
Moisture  
Dew Point 45 °F    
Average Humidity 74    
Maximum Humidity 100    
Minimum Humidity 26    
Precipitation  
Precipitation 0.00 in - - ()
Sea Level Pressure  
Sea Level Pressure 29.86 in    
Wind  
Wind Speed 1 mph (NW)    
Max Wind Speed 9 mph    
Max Gust Speed -    
Visibility 7 miles    
Events Fog , Rain    
Averages and records for this station are not official NWS values.
T = Trace of Precipitation, MM = Missing Value Source: NWS Daily Summary

Daily Weather History Graph

Daily Weather History Graph

Search for Another Location

Airport:

Trip Planner

Search our weather history database for the weather conditions in past years. The results will help you decide how hot, cold, wet, or windy it might be!

Date:

Astronomy

Nov. 01, 2013 Rise Set
Actual Time 7:32 AM CDT 6:18 PM CDT
Civil Twilight 7:06 AM CDT 6:44 PM CDT
Nautical Twilight 6:37 AM CDT 7:14 PM CDT
Astronomical Twilight 6:07 AM CDT 7:43 PM CDT
Moon 5:30 AM CDT (11/1) 5:08 PM CDT (11/1)
Length of Visible Light 11h 37m
Length of Day
10h 45m
Waning Crescent, 4% of the Moon is Illuminated
Nov 1
Waning Crescent
Nov 3
New
Nov 9
First Quarter
Nov 17
Full
Nov 25
Last Quarter

Hourly Weather History & Observations

Time (CDT) Temp. Windchill Dew Point Humidity Pressure Visibility Wind Dir Wind Speed Gust Speed Precip Events Conditions
12:53 AM 51.1 °F - 48.0 °F 89% 29.83 in 10.0 mi Calm Calm - N/A   Clear
1:53 AM 50.0 °F - 46.9 °F 89% 29.84 in 10.0 mi Calm Calm - N/A   Clear
2:53 AM 48.9 °F - 46.9 °F 93% 29.84 in 10.0 mi NNW 3.5 mph - N/A   Clear
3:53 AM 48.0 °F - 46.0 °F 93% 29.83 in 10.0 mi Calm Calm - N/A   Clear
4:53 AM 48.0 °F - 45.0 °F 89% 29.82 in 10.0 mi Calm Calm - N/A   Clear
5:53 AM 46.9 °F - 45.0 °F 93% 29.83 in 4.0 mi Calm Calm - N/A   Clear
6:00 AM 46.4 °F - 46.4 °F 100% 29.84 in 8.0 mi Calm Calm - N/A   Scattered Clouds
6:07 AM 46.4 °F - 46.4 °F 100% 29.84 in 2.5 mi Calm Calm - N/A   Mostly Cloudy
6:11 AM 46.4 °F - 46.4 °F 100% 29.84 in 0.8 mi Calm Calm - N/A   Mist
6:25 AM 46.4 °F - 46.4 °F 100% 29.84 in 0.2 mi Calm Calm - 0.00 in Fog , Rain Light Rain
6:53 AM 46.9 °F - 46.0 °F 97% 29.84 in 0.2 mi Calm Calm - 0.00 in Fog , Rain Light Rain
7:32 AM 46.4 °F - 44.6 °F 93% 29.85 in 0.5 mi Calm Calm - 0.00 in Fog Fog
7:41 AM 46.4 °F - 44.6 °F 93% 29.86 in 0.2 mi Calm Calm - 0.00 in Fog Fog
7:53 AM 46.0 °F - 44.1 °F 93% 29.85 in 0.2 mi Calm Calm - 0.00 in Fog Fog
8:00 AM 46.4 °F - 44.6 °F 93% 29.86 in 1.2 mi Calm Calm - N/A   Scattered Clouds
8:04 AM 46.4 °F 45.2 °F 44.6 °F 93% 29.86 in 3.0 mi NNW 3.5 mph - N/A   Scattered Clouds
8:53 AM 50.0 °F - 46.9 °F 89% 29.87 in 10.0 mi NW 3.5 mph - N/A   Clear
9:53 AM 55.9 °F - 48.9 °F 77% 29.88 in 10.0 mi Calm Calm - N/A   Clear
10:53 AM 63.0 °F - 48.0 °F 58% 29.89 in 10.0 mi WNW 3.5 mph - N/A   Clear
11:53 AM 70.0 °F - 48.0 °F 46% 29.89 in 10.0 mi Variable 4.6 mph - N/A   Clear
12:53 PM 73.0 °F - 44.1 °F 35% 29.87 in 10.0 mi Variable 5.8 mph - N/A   Clear
1:53 PM 75.0 °F - 37.9 °F 26% 29.84 in 10.0 mi North 9.2 mph - N/A   Clear
2:53 PM 75.0 °F - 39.9 °F 28% 29.83 in 10.0 mi Variable 4.6 mph - N/A   Clear
3:53 PM 75.9 °F - 39.0 °F 26% 29.83 in 10.0 mi NNW 6.9 mph - N/A   Clear
4:53 PM 72.0 °F - 41.0 °F 33% 29.83 in 10.0 mi Calm Calm - N/A   Clear
5:53 PM 68.0 °F - 43.0 °F 40% 29.85 in 10.0 mi Calm Calm - N/A   Clear
6:53 PM 64.9 °F - 46.0 °F 50% 29.87 in 10.0 mi Calm Calm - N/A   Clear
7:53 PM 62.1 °F - 46.0 °F 56% 29.89 in 10.0 mi Calm Calm - N/A   Partly Cloudy
8:53 PM 59.0 °F - 50.0 °F 72% 29.91 in 10.0 mi Calm Calm - N/A   Clear
9:53 PM 57.9 °F - 48.0 °F 70% 29.94 in 10.0 mi Calm Calm - N/A   Clear
10:53 PM 55.9 °F - 48.0 °F 75% 29.95 in 10.0 mi Calm Calm - N/A   Clear
11:53 PM 55.0 °F - 46.9 °F 74% 29.97 in 10.0 mi Calm Calm - N/A   Clear